STARLINK-4564 (53560 NORAD) Tracking and Keplerian Element Data

This shows tracking and keplerian element data for the satellite.

Feedback or suggestion? Click here.




ElementValue
Catalog53560
NameSTARLINK-4564
Epoch Orbit130
Epoch Day324.91667824
Epoch Year2022
RAAN62.7305
Inclination53.2147
Eccentricity0.0001375
Argument of Perigee59.9794
Mean Anonmoly269.3731
Mean Motion15.08873966
Decay Rate-0.00072359
L11 53560U 22101AK 22324.91667824 -.00072359 00000+0 -45702-2 0 9998
L22 53560 53.2147 62.7305 0001375 59.9794 269.3731 15.08873966 1303



Live tracking and technical data element details for STARLINK-4564 (NORAD 53560). STARLINK-4564 can be tracked NOW for your location showing map with azimuth and elevation plus other details from your city location.







IsCatalogInMostPopularTable: catalog: 53560, numindb: 4
Update: records affected: 1



GetName: 53560 STARLINK-4564

Hit Count: updated at: Thu, 08 Dec 2022 19:03:20 GMT